Time,TemperatureF,DewpointF,PressureIn,WindDirection,WindDirectionDegrees,WindSpeedMPH,WindSpeedGustMPH,Humidity,HourlyPrecipIn,Conditions,Clouds,dailyrainin,SolarRadiationWatts/m^2,SoftwareType,DateUTC
2013-04-16 00:12:00,28.0,28.0,-100.00,East,100,0.0,10.0,100,0.03,,,0.30,0.000000,,2013-04-16 07:12:00,
2013-04-16 00:22:00,28.0,28.0,-100.00,East,100,0.0,10.0,100,0.03,,,0.30,0.000000,,2013-04-16 07:22:00,
2013-04-16 00:32:00,28.0,28.0,-100.00,East,100,0.0,10.0,100,0.03,,,0.30,0.000000,,2013-04-16 07:32:00,
2013-04-16 00:42:00,28.0,28.0,-100.00,East,100,0.0,10.0,100,0.03,,,0.30,0.000000,,2013-04-16 07:42:00,
2013-04-16 01:12:00,28.0,28.0,-100.00,NW,315,0.0,5.0,100,0.01,,,0.31,0.000000,,2013-04-16 08:12:00,
2013-04-16 01:22:00,28.0,28.0,-100.00,NW,315,0.0,5.0,100,0.01,,,0.31,0.000000,,2013-04-16 08:22:00,
2013-04-16 01:32:00,28.0,28.0,-100.00,NW,315,0.0,5.0,100,0.01,,,0.31,0.000000,,2013-04-16 08:32:00,
2013-04-16 01:42:00,28.0,28.0,-100.00,NW,315,0.0,5.0,100,0.01,,,0.31,0.000000,,2013-04-16 08:42:00,
2013-04-16 02:12:00,28.0,28.0,-100.00,NE,44,2.0,8.0,100,0.02,,,0.33,0.000000,,2013-04-16 09:12:00,
2013-04-16 02:22:00,28.0,28.0,-100.00,NE,44,2.0,8.0,100,0.02,,,0.33,0.000000,,2013-04-16 09:22:00,
2013-04-16 02:32:00,28.0,28.0,-100.00,NE,44,2.0,8.0,100,0.02,,,0.33,0.000000,,2013-04-16 09:32:00,
2013-04-16 02:42:00,28.0,28.0,-100.00,NE,44,2.0,8.0,100,0.02,,,0.33,0.000000,,2013-04-16 09:42:00,
2013-04-16 03:13:00,28.0,28.0,-100.00,ENE,62,1.0,10.0,100,0.01,,,0.34,0.000000,,2013-04-16 10:13:00,
2013-04-16 03:22:00,28.0,28.0,-100.00,ENE,62,1.0,10.0,100,0.01,,,0.34,0.000000,,2013-04-16 10:22:00,
2013-04-16 03:32:00,28.0,28.0,-100.00,ENE,62,1.0,10.0,100,0.01,,,0.34,0.000000,,2013-04-16 10:32:00,
2013-04-16 03:42:00,28.0,28.0,-100.00,ENE,62,1.0,10.0,100,0.01,,,0.34,0.000000,,2013-04-16 10:42:00,
2013-04-16 04:12:00,27.0,27.0,-100.00,WNW,294,2.0,14.0,100,0.03,,,0.37,0.000000,,2013-04-16 11:12:00,
2013-04-16 04:22:00,27.0,27.0,-100.00,WNW,294,2.0,14.0,100,0.03,,,0.37,0.000000,,2013-04-16 11:22:00,
2013-04-16 04:32:00,27.0,27.0,-100.00,WNW,294,2.0,14.0,100,0.03,,,0.37,0.000000,,2013-04-16 11:32:00,
2013-04-16 04:42:00,27.0,27.0,-100.00,WNW,294,2.0,14.0,100,0.03,,,0.37,0.000000,,2013-04-16 11:42:00,
2013-04-16 05:12:00,27.0,27.0,-100.00,East,88,2.0,14.0,100,0.04,,,0.41,0.000000,,2013-04-16 12:12:00,
2013-04-16 05:22:00,27.0,27.0,-100.00,East,88,2.0,14.0,100,0.04,,,0.41,0.000000,,2013-04-16 12:22:00,
2013-04-16 05:32:00,27.0,27.0,-100.00,East,88,2.0,14.0,100,0.04,,,0.41,0.000000,,2013-04-16 12:32:00,
2013-04-16 05:42:00,27.0,27.0,-100.00,East,88,2.0,14.0,100,0.04,,,0.41,0.000000,,2013-04-16 12:42:00,
2013-04-16 06:12:00,26.0,26.0,-100.00,NE,52,2.0,11.0,100,0.04,,,0.45,0.000000,,2013-04-16 13:12:00,
2013-04-16 06:22:00,26.0,26.0,-100.00,NE,52,2.0,11.0,100,0.04,,,0.45,0.000000,,2013-04-16 13:22:00,
2013-04-16 06:32:00,26.0,26.0,-100.00,NE,52,2.0,11.0,100,0.04,,,0.45,0.000000,,2013-04-16 13:32:00,
2013-04-16 06:42:00,26.0,26.0,-100.00,NE,52,2.0,11.0,100,0.04,,,0.45,0.000000,,2013-04-16 13:42:00,
2013-04-16 07:12:00,26.0,26.0,-100.00,SE,129,0.0,5.0,100,0.03,,,0.48,0.000000,,2013-04-16 14:12:00,
2013-04-16 07:22:00,26.0,26.0,-100.00,SE,129,0.0,5.0,100,0.03,,,0.48,0.000000,,2013-04-16 14:22:00,
2013-04-16 07:32:00,26.0,26.0,-100.00,SE,129,0.0,5.0,100,0.03,,,0.48,0.000000,,2013-04-16 14:32:00,
2013-04-16 07:42:00,26.0,26.0,-100.00,SE,129,0.0,5.0,100,0.03,,,0.48,0.000000,,2013-04-16 14:42:00,
2013-04-16 08:12:00,29.0,29.0,-100.00,ESE,117,0.0,5.0,99,0.03,,,0.51,8.000000,,2013-04-16 15:12:00,
2013-04-16 08:22:00,29.0,29.0,-100.00,ESE,117,0.0,5.0,99,0.03,,,0.51,8.000000,,2013-04-16 15:22:00,
2013-04-16 08:32:00,29.0,29.0,-100.00,ESE,117,0.0,5.0,99,0.03,,,0.51,8.000000,,2013-04-16 15:32:00,
2013-04-16 08:43:00,29.0,29.0,-100.00,ESE,117,0.0,5.0,99,0.03,,,0.51,8.000000,,2013-04-16 15:43:00,
2013-04-16 09:13:00,31.0,25.0,-100.00,WNW,293,3.0,11.0,79,0.00,,,0.51,30.000000,,2013-04-16 16:13:00,
2013-04-16 09:23:00,31.0,25.0,-100.00,WNW,293,3.0,11.0,79,0.00,,,0.51,30.000000,,2013-04-16 16:23:00,
2013-04-16 09:32:00,31.0,25.0,-100.00,WNW,293,3.0,11.0,79,0.00,,,0.51,30.000000,,2013-04-16 16:32:00,
2013-04-16 09:42:00,31.0,25.0,-100.00,WNW,293,3.0,11.0,79,0.00,,,0.51,30.000000,,2013-04-16 16:42:00,
2013-04-16 10:12:00,32.0,23.0,-100.00,ENE,68,2.0,8.0,69,0.00,,,0.51,38.000000,,2013-04-16 17:12:00,
2013-04-16 10:22:00,32.0,23.0,-100.00,ENE,68,2.0,8.0,69,0.00,,,0.51,38.000000,,2013-04-16 17:22:00,
2013-04-16 10:32:00,32.0,23.0,-100.00,ENE,68,2.0,8.0,69,0.00,,,0.51,38.000000,,2013-04-16 17:32:00,
2013-04-16 10:43:00,32.0,23.0,-100.00,ENE,68,2.0,8.0,69,0.00,,,0.51,38.000000,,2013-04-16 17:43:00,
2013-04-16 11:12:00,40.0,22.0,-100.00,SE,137,3.0,10.0,49,0.00,,,0.51,476.000000,,2013-04-16 18:12:00,
2013-04-16 11:22:00,40.0,22.0,-100.00,SE,137,3.0,10.0,49,0.00,,,0.51,476.000000,,2013-04-16 18:22:00,
2013-04-16 11:32:00,40.0,22.0,-100.00,SE,137,3.0,10.0,49,0.00,,,0.51,476.000000,,2013-04-16 18:32:00,
2013-04-16 11:42:00,40.0,22.0,-100.00,SE,137,3.0,10.0,49,0.00,,,0.51,476.000000,,2013-04-16 18:42:00,
2013-04-16 12:12:00,36.0,19.0,-100.00,NE,52,4.0,12.0,49,0.00,,,0.51,601.000000,,2013-04-16 19:12:00,
2013-04-16 12:22:00,36.0,19.0,-100.00,NE,52,4.0,12.0,49,0.00,,,0.51,601.000000,,2013-04-16 19:22:00,
2013-04-16 12:32:00,36.0,19.0,-100.00,NE,52,4.0,12.0,49,0.00,,,0.51,601.000000,,2013-04-16 19:32:00,
2013-04-16 12:42:00,36.0,19.0,-100.00,NE,52,4.0,12.0,49,0.00,,,0.51,601.000000,,2013-04-16 19:42:00,
2013-04-16 13:12:00,36.0,16.0,-100.00,South,174,4.0,11.0,43,0.00,,,0.51,597.000000,,2013-04-16 20:12:00,
2013-04-16 13:22:00,36.0,16.0,-100.00,South,174,4.0,11.0,43,0.00,,,0.51,597.000000,,2013-04-16 20:22:00,
2013-04-16 13:32:00,36.0,16.0,-100.00,South,174,4.0,11.0,43,0.00,,,0.51,597.000000,,2013-04-16 20:32:00,
2013-04-16 13:42:00,36.0,16.0,-100.00,South,174,4.0,11.0,43,0.00,,,0.51,597.000000,,2013-04-16 20:42:00,
2013-04-16 14:12:00,43.0,14.0,-100.00,West,264,2.0,10.0,31,0.00,,,0.51,621.000000,,2013-04-16 21:12:00,
2013-04-16 14:22:00,43.0,14.0,-100.00,West,264,2.0,10.0,31,0.00,,,0.51,621.000000,,2013-04-16 21:22:00,
2013-04-16 14:32:00,43.0,14.0,-100.00,West,264,2.0,10.0,31,0.00,,,0.51,621.000000,,2013-04-16 21:32:00,
2013-04-16 14:42:00,43.0,14.0,-100.00,West,264,2.0,10.0,31,0.00,,,0.51,621.000000,,2013-04-16 21:42:00,
2013-04-16 15:13:00,41.0,15.0,-100.00,ENE,71,4.0,9.0,35,0.00,,,0.51,783.000000,,2013-04-16 22:13:00,
2013-04-16 15:22:00,41.0,15.0,-100.00,ENE,71,4.0,9.0,35,0.00,,,0.51,783.000000,,2013-04-16 22:22:00,
2013-04-16 15:32:00,41.0,15.0,-100.00,ENE,71,4.0,9.0,35,0.00,,,0.51,783.000000,,2013-04-16 22:32:00,
2013-04-16 15:42:00,41.0,15.0,-100.00,ENE,71,4.0,9.0,35,0.00,,,0.51,783.000000,,2013-04-16 22:42:00,
2013-04-16 16:12:00,40.0,15.0,-100.00,WSW,258,7.0,17.0,35,0.00,,,0.51,826.000000,,2013-04-16 23:12:00,
2013-04-16 16:22:00,40.0,15.0,-100.00,WSW,258,7.0,17.0,35,0.00,,,0.51,826.000000,,2013-04-16 23:22:00,
2013-04-16 16:32:00,40.0,15.0,-100.00,WSW,258,7.0,17.0,35,0.00,,,0.51,826.000000,,2013-04-16 23:32:00,
2013-04-16 16:42:00,40.0,15.0,-100.00,WSW,258,7.0,17.0,35,0.00,,,0.51,826.000000,,2013-04-16 23:42:00,
2013-04-16 17:12:00,35.0,13.0,-100.00,NW,319,5.0,16.0,39,0.00,,,0.51,450.000000,,2013-04-17 00:12:00,
2013-04-16 17:22:00,35.0,13.0,-100.00,NW,319,5.0,16.0,39,0.00,,,0.51,450.000000,,2013-04-17 00:22:00,
2013-04-16 17:32:00,35.0,13.0,-100.00,NW,319,5.0,16.0,39,0.00,,,0.51,450.000000,,2013-04-17 00:32:00,
2013-04-16 17:42:00,35.0,13.0,-100.00,NW,319,5.0,16.0,39,0.00,,,0.51,450.000000,,2013-04-17 00:42:00,
2013-04-16 18:12:00,36.0,16.0,-100.00,NE,36,3.0,11.0,44,0.00,,,0.51,403.000000,,2013-04-17 01:12:00,
2013-04-16 18:22:00,36.0,16.0,-100.00,NE,36,3.0,11.0,44,0.00,,,0.51,403.000000,,2013-04-17 01:22:00,
2013-04-16 18:32:00,36.0,16.0,-100.00,NE,36,3.0,11.0,44,0.00,,,0.51,403.000000,,2013-04-17 01:32:00,
2013-04-16 18:42:00,36.0,16.0,-100.00,NE,36,3.0,11.0,44,0.00,,,0.51,403.000000,,2013-04-17 01:42:00,
2013-04-16 19:12:00,33.0,21.0,-100.00,ESE,120,0.0,11.0,60,0.00,,,0.44,256.000000,,2013-04-17 02:12:00,
2013-04-16 19:22:00,33.0,21.0,-100.00,ESE,120,0.0,11.0,60,0.00,,,0.44,256.000000,,2013-04-17 02:22:00,
2013-04-16 19:32:00,33.0,21.0,-100.00,ESE,120,0.0,11.0,60,0.00,,,0.44,256.000000,,2013-04-17 02:32:00,
2013-04-16 19:42:00,33.0,21.0,-100.00,ESE,120,0.0,11.0,60,0.00,,,0.44,256.000000,,2013-04-17 02:42:00,
2013-04-16 20:12:00,29.0,18.0,-100.00,SE,136,0.0,7.0,64,0.00,,,0.38,18.000000,,2013-04-17 03:12:00,
2013-04-16 20:22:00,29.0,18.0,-100.00,SE,136,0.0,7.0,64,0.00,,,0.38,18.000000,,2013-04-17 03:22:00,
2013-04-16 20:32:00,29.0,18.0,-100.00,SE,136,0.0,7.0,64,0.00,,,0.38,18.000000,,2013-04-17 03:32:00,
2013-04-16 20:42:00,29.0,18.0,-100.00,SE,136,0.0,7.0,64,0.00,,,0.38,18.000000,,2013-04-17 03:42:00,
2013-04-16 21:13:00,27.0,18.0,-100.00,SE,140,0.0,5.0,68,0.00,,,0.33,0.000000,,2013-04-17 04:13:00,
2013-04-16 21:22:00,27.0,18.0,-100.00,SE,140,0.0,5.0,68,0.00,,,0.33,0.000000,,2013-04-17 04:22:00,
2013-04-16 21:33:00,27.0,18.0,-100.00,SE,140,0.0,5.0,68,0.00,,,0.33,0.000000,,2013-04-17 04:33:00,
2013-04-16 21:42:00,27.0,18.0,-100.00,SE,140,0.0,5.0,68,0.00,,,0.33,0.000000,,2013-04-17 04:42:00,
2013-04-16 22:12:00,28.0,20.0,-100.00,SE,145,0.0,0.0,72,0.00,,,-99.99,0.000000,,2013-04-17 05:12:00,
2013-04-16 22:22:00,28.0,20.0,-100.00,SE,145,0.0,0.0,72,0.00,,,-99.99,0.000000,,2013-04-17 05:22:00,
2013-04-16 22:32:00,28.0,20.0,-100.00,SE,145,0.0,0.0,72,0.00,,,-99.99,0.000000,,2013-04-17 05:32:00,
2013-04-16 22:42:00,28.0,20.0,-100.00,SE,145,0.0,0.0,72,0.00,,,-99.99,0.000000,,2013-04-17 05:42:00,
2013-04-16 23:12:00,28.0,21.0,-100.00,SE,131,0.0,4.0,76,0.00,,,0.24,0.000000,,2013-04-17 06:12:00,
2013-04-16 23:22:00,28.0,21.0,-100.00,SE,131,0.0,4.0,76,0.00,,,0.24,0.000000,,2013-04-17 06:22:00,
2013-04-16 23:32:00,28.0,21.0,-100.00,SE,131,0.0,4.0,76,0.00,,,0.24,0.000000,,2013-04-17 06:32:00,
2013-04-16 23:42:00,28.0,21.0,-100.00,SE,131,0.0,4.0,76,0.00,,,0.24,0.000000,,2013-04-17 06:42:00,